This is the latest recevied weather packets stored in our database for station/object OK1OBR-13. If no packets are shown the sender has not sent any weather packets the latest 1 day(s).
| Time | Temp. | Humidity | Pressure | Rain* | Wind** | Luminosity | Snow |
|---|---|---|---|---|---|---|---|
| 1778027820 | 11.67° C | 95% | 928.9 hPa | 0 mm | 0.45 m/s, 323° | - | - |
| 1778027762 | 11.67° C | 95% | 928.6 hPa | 0 mm | 0.89 m/s, 316° | - | - |
| 1778027701 | 11.67° C | 95% | 928.7 hPa | 0 mm | 0.45 m/s, 319° | - | - |
| 1778027641 | 11.67° C | 95% | 928.7 hPa | 0 mm | 0.45 m/s, 310° | - | - |
| 1778027581 | 11.67° C | 95% | 928.6 hPa | 0 mm | 0.45 m/s, 308° | - | - |
| 1778027522 | 11.67° C | 94% | 928.9 hPa | 0 mm | 0.45 m/s, 329° | - | - |
| 1778027462 | 11.67° C | 94% | 928.7 hPa | 0 mm | 0.45 m/s, 309° | - | - |
| 1778027402 | 11.67° C | 94% | 928.7 hPa | 0 mm | 0.45 m/s, 311° | - | - |
| 1778027340 | 11.67° C | 94% | 928.7 hPa | 0 mm | 0.45 m/s, 303° | - | - |
| 1778027281 | 11.67° C | 94% | 928.8 hPa | 0 mm | 0.89 m/s, 311° | - | - |
| 1778027221 | 11.67° C | 94% | 928.8 hPa | 0 mm | 0.45 m/s, 319° | - | - |
| 1778027161 | 11.67° C | 94% | 928.6 hPa | 0 mm | 0.45 m/s, 305° | - | - |
| 1778027101 | 11.67° C | 94% | 928.8 hPa | 0 mm | 0.89 m/s, 337° | - | - |
| 1778027041 | 11.67° C | 94% | 928.8 hPa | 0 mm | 0.89 m/s, 307° | - | - |
| 1778026981 | 12.22° C | 94% | 928.9 hPa | 0 mm | 0.89 m/s, 311° | - | - |
| 1778026921 | 12.22° C | 94% | 928.7 hPa | 0 mm | 0.89 m/s, 323° | - | - |
| 1778026861 | 12.22° C | 94% | 928.8 hPa | 0 mm | 0.45 m/s, 330° | - | - |
| 1778026801 | 12.22° C | 94% | 928.6 hPa | 0 mm | 0.89 m/s, 312° | - | - |
| 1778026740 | 12.22° C | 94% | 928.9 hPa | 0 mm | 0.89 m/s, 312° | - | - |
| 1778026681 | 12.22° C | 94% | 929 hPa | 0 mm | 0.89 m/s, 306° | - | - |
| 1778026621 | 12.22° C | 94% | 929 hPa | 0 mm | 1.34 m/s, 326° | - | - |
| 1778026561 | 12.22° C | 94% | 928.6 hPa | 0 mm | 1.34 m/s, 308° | - | - |
| 1778026505 | 12.22° C | 94% | 928.8 hPa | 0 mm | 0.89 m/s, 286° | - | - |
| 1778026441 | 12.22° C | 94% | 928.8 hPa | 0 mm | 0.89 m/s, 321° | - | - |
| 1778026382 | 12.22° C | 94% | 928.8 hPa | 0 mm | 0.45 m/s, 311° | - | - |
* Rain since midnight (hover to see other rain measurements)
** Current wind speed in m/s (hover to see current wind gust speed)